User: anonymous   Login
Location: Fort Wayne
(41.1310°N, 85.1290°W)
Time: 11:45:11
(UTC-04:00)
Language:

SL-08 RB Rocket - Orbit

View from above orbital plane
View from above orbital plane
View from above satellite
View from above satellite

Ground track
Ground track

The orbit data is extracted from the following two-line orbital elements,

1 26387U 00033D   16144.81988350  .00000184  00000-0  40320-4 0  9996
2 26387  98.0189 211.9095 0027660 132.1562 344.6929 14.68149456850740
Epoch (UTC): 23 May 2016 19:40:37
Eccentricity: 0.0027660
inclination: 98.0189°
perigee height: 647 km
apogee height: 686 km
right ascension of ascending node: 211.9095°
argument of perigee: 132.1562°
revolutions per day: 14.68149456
mean anomaly at epoch: 344.6929°
orbit number at epoch: 85074

The dashed part of the orbit path shows where the satellite is in the earth's shadow,  

DLR